TimeJST,TemperatureF,Dew PointF,Humidity,Sea Level PressureIn,VisibilityMPH,Wind Direction,Wind SpeedMPH,Gust SpeedMPH,PrecipitationIn,Events,Conditions,WindDirDegrees,DateUTC
12:00 AM,63,54,65,30.07,,NE,15.0,,,,,50,2014-02-04 15:00:00
1:00 AM,62,56,73,30.05,,NE,12.7,,,,,50,2014-02-04 16:00:00
2:00 AM,62,56,75,30.05,,ENE,11.5,,,,,60,2014-02-04 17:00:00
3:00 AM,62,57,77,30.05,6,ENE,11.5,,,Rain,Light Rain Showers,60,2014-02-04 18:00:00
4:00 AM,63,55,69,30.04,,ENE,15.0,,,,,70,2014-02-04 19:00:00
5:00 AM,63,56,73,30.04,,ENE,11.5,,,,,70,2014-02-04 20:00:00
6:00 AM,62,57,79,30.05,6,NE,13.8,,,Rain,Light Rain Showers,50,2014-02-04 21:00:00
6:00 AM,60.8,59.0,94,30.04,6.2,ENE,20.7,-,N/A,Rain,Light Rain,60,2014-02-04 21:00:00
7:00 AM,63,57,75,30.08,,ENE,13.8,,,,,70,2014-02-04 22:00:00
7:00 AM,62.6,59.0,88,30.06,6.2,ENE,18.4,-,N/A,Rain,Light Rain,70,2014-02-04 22:00:00
8:00 AM,63,57,74,30.09,,ENE,12.7,,,,,70,2014-02-04 23:00:00
8:00 AM,60.8,57.2,88,30.06,6.2,ENE,16.1,-,N/A,Rain,Light Rain,70,2014-02-04 23:00:00
9:00 AM,64,56,70,30.10,6,East,12.7,,,Rain,Light Rain Showers,80,2014-02-05 00:00:00
9:00 AM,62.6,57.2,82,30.09,6.2,East,16.1,-,N/A,,Mostly Cloudy,80,2014-02-05 00:00:00
10:00 AM,65,58,72,30.11,,East,12.7,,,,,80,2014-02-05 01:00:00
10:00 AM,64.4,59.0,83,30.09,6.2,ENE,15.0,-,N/A,,Mostly Cloudy,70,2014-02-05 01:00:00
11:00 AM,65,58,73,30.10,,ENE,13.8,,,,,70,2014-02-05 02:00:00
11:00 AM,64.4,60.8,88,30.09,6.2,ENE,16.1,-,N/A,Rain,Light Rain,70,2014-02-05 02:00:00
12:00 PM,66,59,71,30.07,6,East,12.7,,,Rain,Light Rain Showers,80,2014-02-05 03:00:00
12:00 PM,66.2,60.8,83,30.06,6.2,East,17.3,-,N/A,,Mostly Cloudy,80,2014-02-05 03:00:00
1:00 PM,67,59,69,30.04,,East,15.0,,,,,80,2014-02-05 04:00:00
1:00 PM,66.2,60.8,83,30.04,6.2,East,15.0,-,N/A,,Mostly Cloudy,80,2014-02-05 04:00:00
2:00 PM,67,59,68,30.01,,East,12.7,,,,,90,2014-02-05 05:00:00
2:00 PM,66.2,60.8,83,29.98,6.2,East,13.8,-,N/A,,Mostly Cloudy,90,2014-02-05 05:00:00
3:00 PM,68,60,67,29.98,6,East,13.8,,,Rain,Light Rain Showers,100,2014-02-05 06:00:00
3:00 PM,68.0,60.8,78,29.98,6.2,East,12.7,-,N/A,,Mostly Cloudy,90,2014-02-05 06:00:00
4:00 PM,68,60,68,29.99,,East,11.5,,,,,90,2014-02-05 07:00:00
4:00 PM,68.0,60.8,78,29.98,6.2,East,11.5,-,N/A,,Mostly Cloudy,90,2014-02-05 07:00:00
5:00 PM,68,61,71,29.99,,East,12.7,,,,,100,2014-02-05 08:00:00
5:00 PM,68.0,62.6,83,29.98,6.2,East,12.7,-,N/A,,Mostly Cloudy,90,2014-02-05 08:00:00
6:00 PM,68,61,73,30.00,9,East,12.7,,,,Mostly Cloudy,90,2014-02-05 09:00:00
6:00 PM,68.0,62.6,83,29.98,6.2,East,15.0,-,N/A,,Mostly Cloudy,90,2014-02-05 09:00:00
7:00 PM,68,62,74,30.00,,East,12.7,,,,,100,2014-02-05 10:00:00
7:00 PM,68.0,62.6,83,29.98,6.2,East,12.7,-,N/A,,Mostly Cloudy,90,2014-02-05 10:00:00
8:00 PM,68,62,74,30.01,,East,15.0,,,,,90,2014-02-05 11:00:00
8:00 PM,68.0,62.6,83,29.98,6.2,East,13.8,-,N/A,,Mostly Cloudy,90,2014-02-05 11:00:00
9:00 PM,68,62,74,30.02,9,East,13.8,,,Rain,Light Rain Showers,100,2014-02-05 12:00:00
10:00 PM,68,62,76,30.01,,East,13.8,,,,,90,2014-02-05 13:00:00
11:00 PM,68,62,76,30.01,,ESE,15.0,,,,,110,2014-02-05 14:00:00